Edinburg, TX

12:29 AM CDT on July 26, 2016 (GMT -0500)
Edinburg

Weather History for KEBG - January, 2013

Change the Weather History Date:

Tuesday, January 22, 2013

  Actual Average (KMFE) Record (KMFE)
Temperature  
Mean Temperature 65 °F 61 °F  
Max Temperature 77 °F 71 °F 89 °F (1943)
Min Temperature 53 °F 51 °F 25 °F (1922)
Degree Days  
Heating Degree Days 0 6  
Month to date heating degree days 143  
Since 1 July heating degree days 380  
Cooling Degree Days 0 2  
Month to date cooling degree days 44  
Year to date cooling degree days 44  
Growing Degree Days 15 (Base 50)    
Moisture  
Dew Point 51 °F    
Average Humidity 67    
Maximum Humidity 92    
Minimum Humidity 29    
Precipitation  
Precipitation 0.00 in 0.04 in 0.87 in (1975)
Month to date precipitation 0.73  
Year to date precipitation 0.73  
Sea Level Pressure  
Sea Level Pressure 30.22 in    
Wind  
Wind Speed 4 mph (East)    
Max Wind Speed 14 mph    
Max Gust Speed 18 mph    
Visibility 6 miles    
Events      
T = Trace of Precipitation, MM = Missing Value Source: NWS Daily Summary

Daily Weather History Graph

Daily Weather History Graph

Search for Another Location

Airport or City:

Trip Planner

Search our weather history database for the weather conditions in past years. The results will help you decide how hot, cold, wet, or windy it might be!

Date:

Astronomy

Jan. 22, 2013 Rise Set
Actual Time 7:20 AM CST 6:07 PM CST
Civil Twilight 6:56 AM CST 6:32 PM CST
Nautical Twilight 6:28 AM CST 7:00 PM CST
Astronomical Twilight 6:00 AM CST 7:28 PM CST
Moon 2:35 PM CST (1/22) 3:40 AM CST (1/22)
Length of Visible Light 11h 36m
Length of Day
10h 46m
Waxing Gibbous, 83% of the Moon is Illuminated
Jan 22
Waxing Gibbous
Jan 26
Full
Feb 3
Last Quarter
Feb 10
New
Feb 17
First Quarter

Hourly Weather History & Observations

Time (CST) Temp. Dew Point Humidity Pressure Visibility Wind Dir Wind Speed Gust Speed Precip Events Conditions
12:15 AM 56.7 °F 53.6 °F 89% 30.18 in 7.0 mi Calm Calm - N/A   Clear
12:35 AM 56.7 °F 53.6 °F 89% 30.18 in 5.0 mi Calm Calm - N/A   Clear
12:55 AM 56.3 °F 53.6 °F 91% 30.17 in 5.0 mi Calm Calm - N/A   Clear
1:15 AM 55.9 °F 53.2 °F 91% 30.18 in 5.0 mi Calm Calm - N/A   Clear
1:55 AM 55.9 °F 53.6 °F 92% 30.18 in 2.5 mi Calm Calm - N/A   Clear
2:15 AM 54.9 °F 52.3 °F 91% 30.18 in 4.0 mi Calm Calm - N/A   Clear
2:55 AM 55.0 °F 52.7 °F 92% 30.17 in 2.5 mi Calm Calm - N/A   Scattered Clouds
3:15 AM 54.5 °F 52.0 °F 91% 30.18 in 5.0 mi Calm Calm - N/A   Mostly Cloudy
3:35 AM 53.8 °F 51.4 °F 92% 30.18 in 4.0 mi Calm Calm - N/A   Scattered Clouds
3:55 AM 54.0 °F 51.8 °F 92% 30.19 in 4.0 mi NNW 6.9 mph - N/A   Scattered Clouds
4:15 AM 54.7 °F 52.5 °F 92% 30.20 in 4.0 mi NNW 4.6 mph - N/A   Mostly Cloudy
4:35 AM 55.8 °F 53.4 °F 92% 30.20 in 4.0 mi NNW 4.6 mph - N/A   Overcast
4:55 AM 55.8 °F 53.4 °F 92% 30.20 in 5.0 mi North 4.6 mph - N/A   Overcast
5:15 AM 55.4 °F 52.9 °F 91% 30.20 in 4.0 mi Calm Calm - N/A   Mostly Cloudy
5:35 AM 54.5 °F 51.8 °F 91% 30.20 in 4.0 mi North 4.6 mph - N/A   Mostly Cloudy
5:55 AM 54.1 °F 51.6 °F 91% 30.21 in 4.0 mi NNW 3.5 mph - N/A   Mostly Cloudy
6:15 AM 55.6 °F 53.2 °F 92% 30.22 in 4.0 mi North 4.6 mph - N/A   Overcast
6:35 AM 55.4 °F 52.9 °F 91% 30.22 in 5.0 mi North 3.5 mph - N/A   Mostly Cloudy
6:55 AM 54.7 °F 52.2 °F 91% 30.23 in 5.0 mi Calm Calm - N/A   Scattered Clouds
7:15 AM 54.7 °F 52.2 °F 91% 30.24 in 4.0 mi Calm Calm - N/A   Mostly Cloudy
7:35 AM 55.2 °F 52.7 °F 91% 30.24 in 4.0 mi Calm Calm - N/A   Mostly Cloudy
7:55 AM 56.7 °F 54.3 °F 92% 30.25 in 5.0 mi Calm Calm - N/A   Scattered Clouds
8:15 AM 58.6 °F 55.4 °F 89% 30.25 in 4.0 mi Calm Calm - N/A   Clear
8:35 AM 60.1 °F 55.4 °F 85% 30.26 in 5.0 mi Calm Calm - N/A   Haze
8:55 AM 60.8 °F 55.6 °F 83% 30.26 in 7.0 mi Calm Calm - N/A   Clear
9:15 AM 62.4 °F 55.8 °F 79% 30.27 in 7.0 mi NE 3.5 mph - N/A   Clear
9:35 AM 66.2 °F 56.1 °F 70% 30.27 in 7.0 mi East 4.6 mph - N/A   Clear
9:55 AM 69.6 °F 54.9 °F 59% 30.28 in 7.0 mi East 4.6 mph - N/A   Clear
10:15 AM 70.3 °F 54.0 °F 56% 30.28 in 7.0 mi East 9.2 mph - N/A   Clear
10:35 AM 72.5 °F 53.1 °F 50% 30.28 in 7.0 mi East 9.2 mph - N/A   Clear
10:55 AM 72.7 °F 51.1 °F 47% 30.28 in 7.0 mi ESE 8.1 mph - N/A   Clear
11:15 AM 73.6 °F 46.6 °F 38% 30.27 in 7.0 mi ESE 9.2 mph - N/A   Clear
11:35 AM 75.0 °F 47.5 °F 38% 30.26 in 7.0 mi ESE 10.4 mph - N/A   Clear
11:55 AM 75.2 °F 48.0 °F 38% 30.25 in 7.0 mi SE 10.4 mph - N/A   Clear
12:15 PM 75.4 °F 48.9 °F 39% 30.25 in 7.0 mi ESE 12.7 mph - N/A   Clear
12:35 PM 76.8 °F 49.1 °F 38% 30.23 in 7.0 mi ESE 11.5 mph 17.3 mph N/A   Clear
12:55 PM 77.4 °F 49.1 °F 37% 30.22 in 7.0 mi ESE 12.7 mph 17.3 mph N/A   Clear
1:15 PM 76.6 °F 49.1 °F 38% 30.21 in 7.0 mi ESE 12.7 mph 18.4 mph N/A   Clear
1:35 PM 77.4 °F 48.9 °F 37% 30.20 in 5.0 mi ESE 13.8 mph 18.4 mph N/A   Haze
1:55 PM 77.5 °F 46.8 °F 34% 30.20 in 7.0 mi East 9.2 mph 17.3 mph N/A   Clear
2:15 PM 77.2 °F 45.5 °F 32% 30.19 in 5.0 mi East 10.4 mph - N/A   Haze
2:35 PM 77.5 °F 44.4 °F 31% 30.19 in 7.0 mi East 12.7 mph - N/A   Clear
2:55 PM 77.4 °F 42.6 °F 29% 30.19 in 7.0 mi East 9.2 mph - N/A   Clear
3:15 PM 77.2 °F 43.2 °F 30% 30.19 in 7.0 mi ESE 8.1 mph - N/A   Scattered Clouds
3:35 PM 76.5 °F 44.4 °F 32% 30.19 in 7.0 mi East 11.5 mph - N/A   Clear
4:15 PM 75.4 °F 44.1 °F 33% 30.19 in 7.0 mi East 12.7 mph - N/A   Clear
4:35 PM 75.4 °F 44.6 °F 33% 30.19 in 7.0 mi ESE 11.5 mph - N/A   Clear
4:55 PM 75.4 °F 46.8 °F 36% 30.19 in 7.0 mi ESE 11.5 mph 17.3 mph N/A   Clear
5:15 PM 74.5 °F 47.8 °F 39% 30.20 in 7.0 mi East 12.7 mph - N/A   Clear
5:35 PM 73.8 °F 49.5 °F 42% 30.20 in 7.0 mi East 13.8 mph - N/A   Clear
6:15 PM 71.2 °F 46.8 °F 42% 30.20 in 7.0 mi East 11.5 mph - N/A   Clear
6:35 PM 69.8 °F 51.3 °F 52% 30.21 in 10.0 mi East 8.1 mph - N/A   Clear
6:55 PM 68.2 °F 51.6 °F 55% 30.21 in 7.0 mi East 9.2 mph - N/A   Scattered Clouds
7:15 PM 68.2 °F 52.7 °F 58% 30.22 in 7.0 mi East 9.2 mph - N/A   Scattered Clouds
7:35 PM 67.1 °F 52.9 °F 60% 30.23 in 10.0 mi East 6.9 mph - N/A   Clear
7:55 PM 65.5 °F 53.4 °F 65% 30.23 in 10.0 mi East 5.8 mph - N/A   Clear
8:15 PM 65.3 °F 53.8 °F 66% 30.24 in 7.0 mi East 6.9 mph - N/A   Clear
8:35 PM 64.6 °F 54.0 °F 68% 30.24 in 7.0 mi East 4.6 mph - N/A   Clear
8:55 PM 63.5 °F 53.8 °F 71% 30.25 in 7.0 mi East 4.6 mph - N/A   Clear
9:15 PM 61.2 °F 53.1 °F 75% 30.25 in 7.0 mi ESE 3.5 mph - N/A   Clear
9:35 PM 62.8 °F 54.0 °F 73% 30.25 in 7.0 mi East 3.5 mph - N/A   Scattered Clouds
9:55 PM 61.0 °F 53.1 °F 75% 30.25 in 10.0 mi Calm Calm - N/A   Scattered Clouds
10:15 PM 60.8 °F 53.6 °F 77% 30.25 in 7.0 mi East 3.5 mph - N/A   Clear
10:35 PM 60.3 °F 53.4 °F 78% 30.26 in 7.0 mi Calm Calm - N/A   Clear
10:55 PM 60.4 °F 53.6 °F 78% 30.26 in 7.0 mi Calm Calm - N/A   Scattered Clouds
11:15 PM 59.7 °F 53.6 °F 80% 30.26 in 7.0 mi Calm Calm - N/A   Scattered Clouds
11:35 PM 59.0 °F 53.1 °F 81% 30.26 in 7.0 mi Calm Calm - N/A   Clear
11:55 PM 58.5 °F 52.7 °F 81% 30.25 in 7.0 mi Calm Calm - N/A   Clear